Location: Newark
(48.7653°N, 0.1958°W)
Time: 20:40:18
(UTC+00:00)

N. Korean satellite - Visible Passes

Search period start: 09 December 2019 00:00
Search period end: 19 December 2019 00:00
Orbit: 456 x 506 km, 97.2° (Epoch: 09 December)

Date Brightness Start Highest point End Pass type
(mag) Time Alt. Az. Time Alt. Az. Time Alt. Az.
09 Dec 8.4 05:27:19 10° NNE 05:30:34 32° E 05:33:46 10° SSE visible
09 Dec 7.8 07:01:06 10° NNW 07:03:47 20° WNW 07:06:25 10° WSW visible
09 Dec 8.8 17:39:37 10° SSW 17:42:53 29° W 17:46:10 10° NNW visible
10 Dec 9.5 05:02:32 10° NE 05:04:57 17° E 05:07:21 10° SE visible
10 Dec 7.0 06:35:13 10° N 06:38:31 36° WNW 06:41:45 10° SW visible
10 Dec 7.4 17:13:42 10° S 17:17:21 56° W 17:21:01 10° NNW visible
11 Dec 6.4 06:09:36 10° N 06:13:09 75° WNW 06:16:38 10° SSW visible
11 Dec 6.6 16:48:13 10° SSE 16:51:55 72° ENE 16:55:36 10° N visible
11 Dec 10.3 18:25:12 10° W 18:25:45 10° W 18:26:20 10° WNW visible
12 Dec 7.3 05:44:13 10° NNE 05:47:42 52° E 05:51:06 10° S visible
12 Dec 9.6 17:57:22 10° SW 18:00:05 19° W 18:02:47 10° NW visible
13 Dec 8.8 05:19:07 10° NE 05:22:09 26° E 05:25:06 10° SSE visible
13 Dec 7.6 06:52:34 10° NNW 06:55:28 24° WNW 06:58:19 10° WSW visible
13 Dec 8.4 17:31:04 10° SSW 17:34:29 35° W 17:37:54 10° NNW visible
14 Dec 9.8 04:54:35 10° ENE 04:56:30 14° E 04:58:23 10° ESE visible
14 Dec 6.7 06:26:46 10° N 06:30:10 45° WNW 06:33:29 10° SW visible
14 Dec 6.9 17:05:18 10° S 17:08:59 71° WSW 17:12:40 10° NNW visible
15 Dec 6.4 06:01:14 10° NNE 06:04:46 87° ESE 06:08:13 10° SSW visible
15 Dec 6.7 16:39:57 10° SSE 16:43:35 57° ENE 16:47:11 10° N visible
15 Dec 10.0 18:15:39 10° WSW 18:17:18 13° W 18:18:57 10° WNW visible
16 Dec 7.8 05:35:56 10° NNE 05:39:17 41° E 05:42:33 10° S visible
16 Dec 8.1 07:10:08 10° NNW 07:12:22 16° WNW 07:14:34 10° WSW visible
16 Dec 9.3 17:48:41 10° SSW 17:51:39 23° W 17:54:37 10° NW visible
17 Dec 9.1 05:10:57 10° NE 05:13:41 21° E 05:16:22 10° SE visible
17 Dec 7.3 06:44:03 10° N 06:47:07 29° WNW 06:50:07 10° SW visible
17 Dec 7.9 17:22:33 10° S 17:26:04 43° W 17:29:35 10° NNW visible
18 Dec 10.0 04:46:54 10° ENE 04:47:59 11° E 04:49:04 10° ESE visible
18 Dec 6.5 06:18:20 10° N 06:21:47 56° WNW 06:25:09 10° SSW visible
18 Dec 6.6 16:56:55 10° SSE 17:00:36 88° W 17:04:15 10° NNW visible
